Location: *
(44.3925°N, 5.4708°E)
Time: 02:29:21
(UTC+00:00)

CZ-4C R/B - Pass Details

Date: 18 September 2019
Orbit: 653 x 1349 km, 63.4° (Epoch: 21 October)

Event Time Altitude Azimuth Distance (km) Brightness Sun altitude
Rises 22:24:07 0° 324° (NW) 3,723 6.4 -41.5°
Reaches altitude 10° 22:26:50 10° 333° (NNW) 2,877 5.6 -41.7°
Enters shadow 22:31:36 32° 14° (NNE) 1,846 4.1 -42.0°
